| time (UTC) | temp C | wind direction | speed KPH | gust KPH | rain 1hr cm | rain 24hr cm | rain mn cm | humidity % | barometer mb |
| 20260906151529 | 27 | 320 | 0.0 | 1.6 | 0.00 | 0.00 | 0.00 | 47 | 1005.8 |
| 20260906150030 | 26 | 321 | 1.6 | 4.8 | 0.00 | 0.00 | 0.00 | 50 | 1005.9 |
| 20260906144527 | 26 | 85 | 0.0 | 0.0 | 0.00 | 0.00 | 0.00 | 55 | 1006.0 |
| 20260906143024 | 25 | 108 | 0.0 | 0.0 | 0.00 | 0.00 | 0.00 | 57 | 1005.8 |
| 20260906141522 | 26 | 108 | 0.0 | 1.6 | 0.00 | 0.00 | 0.00 | 50 | 1005.8 |
| 20260906140021 | 25 | 108 | 0.0 | 0.0 | 0.00 | 0.00 | 0.00 | 51 | 1005.6 |
| 20260906134522 | 25 | 108 | 0.0 | 0.0 | 0.00 | 0.00 | 0.00 | 52 | 1005.4 |
| 20260906133025 | 25 | 108 | 0.0 | 0.0 | 0.00 | 0.00 | 0.00 | 53 | 1005.4 |
| 20260906131518 | 25 | 108 | 0.0 | 0.0 | 0.00 | 0.00 | 0.00 | 52 | 1005.2 |
| 20260906130023 | 24 | 108 | 0.0 | 0.0 | 0.00 | 0.00 | 0.00 | 55 | 1005.2 |
| 20260906124516 | 25 | 108 | 0.0 | 0.0 | 0.00 | 0.00 | 0.00 | 53 | 1005.2 |
| 20260906123020 | 24 | 108 | 0.0 | 0.0 | 0.00 | 0.00 | 0.00 | 53 | 1005.3 |
| 20260906121530 | 25 | 108 | 0.0 | 1.6 | 0.00 | 0.00 | 0.00 | 52 | 1005.1 |
| 20260906120012 | 25 | 108 | 0.0 | 0.0 | 0.00 | 0.00 | 0.00 | 52 | 1005.0 |
| 20260906114519 | 25 | 108 | 0.0 | 0.0 | 0.00 | 0.00 | 0.00 | 52 | 1004.8 |
| 20260906113010 | 26 | 108 | 0.0 | 1.6 | 0.00 | 0.00 | 0.00 | 51 | 1004.6 |
| 20260906111510 | 26 | 108 | 0.0 | 0.0 | 0.00 | 0.00 | 0.00 | 52 | 1004.5 |
| 20260906110009 | 26 | 108 | 0.0 | 0.0 | 0.00 | 0.00 | 0.00 | 55 | 1004.3 |
| 20260906104509 | 26 | 134 | 0.0 | 3.2 | 0.00 | 0.00 | 0.00 | 51 | 1004.4 |
| 20260906103013 | 26 | 99 | 0.0 | 0.0 | 0.00 | 0.00 | 0.00 | 52 | 1004.4 |
| 20260906101507 | 25 | 335 | 0.0 | 0.0 | 0.00 | 0.00 | 0.00 | 55 | 1004.3 |
| 20260906100007 | 25 | 329 | 0.0 | 0.0 | 0.00 | 0.00 | 0.00 | 53 | 1004.2 |
| 20260906094506 | 25 | 329 | 0.0 | 0.0 | 0.00 | 0.00 | 0.00 | 53 | 1004.2 |
| 20260906093006 | 25 | 329 | 0.0 | 4.8 | 0.00 | 0.00 | 0.00 | 54 | 1004.1 |
| 20260906091505 | 25 | 7 | 0.0 | 1.6 | 0.00 | 0.00 | 0.00 | 57 | 1004.2 |
| 20260906090003 | 25 | 110 | 0.0 | 0.0 | 0.00 | 0.00 | 0.00 | 57 | 1004.2 |
| 20260906084504 | 25 | 118 | 0.0 | 0.0 | 0.00 | 0.00 | 0.00 | 57 | 1004.2 |
| 20260906083104 | 25 | 118 | 0.0 | 0.0 | 0.00 | 0.00 | 0.00 | 56 | 1004.2 |
| 20260906081557 | 25 | 118 | 0.0 | 0.0 | 0.00 | 0.00 | 0.00 | 55 | 1004.4 |
| 20260906080056 | 26 | 118 | 0.0 | 0.0 | 0.00 | 0.00 | 0.00 | 55 | 1004.3 |
| 20260906074554 | 26 | 118 | 0.0 | 0.0 | 0.00 | 0.00 | 0.00 | 54 | 1004.5 |
| 20260906073051 | 26 | 118 | 0.0 | 0.0 | 0.00 | 0.00 | 0.00 | 51 | 1004.7 |
| 20260906071549 | 26 | 118 | 0.0 | 0.0 | 0.00 | 0.00 | 0.00 | 51 | 1004.8 |
| 20260906070045 | 26 | 118 | 0.0 | 0.0 | 0.00 | 0.00 | 0.00 | 52 | 1004.9 |
| 20260906064545 | 27 | 118 | 0.0 | 0.0 | 0.00 | 0.00 | 0.00 | 47 | 1004.7 |
| 20260906063044 | 28 | 118 | 0.0 | 3.2 | 0.00 | 0.00 | 0.00 | 44 | 1004.7 |
| 20260906061548 | 29 | 97 | 0.0 | 1.6 | 0.00 | 0.00 | 0.00 | 41 | 1004.7 |
| 20260906060053 | 28 | 314 | 0.0 | 3.2 | 0.00 | 0.00 | 0.00 | 43 | 1004.8 |
| 20260906054546 | 28 | 328 | 0.0 | 0.0 | 0.00 | 0.00 | 0.00 | 45 | 1004.8 |
| 20260906053042 | 28 | 110 | 0.0 | 0.0 | 0.00 | 0.00 | 0.00 | 45 | 1004.9 |
| 20260906051541 | 30 | 101 | 0.0 | 3.2 | 0.00 | 0.00 | 0.00 | 40 | 1005.0 |
| 20260906050040 | 30 | 103 | 0.0 | 0.0 | 0.00 | 0.00 | 0.00 | 40 | 1005.0 |
| 20260906044540 | 30 | 322 | 0.0 | 4.8 | 0.00 | 0.00 | 0.00 | 39 | 1004.9 |
| 20260906043038 | 30 | 299 | 0.0 | 4.8 | 0.00 | 0.00 | 0.00 | 39 | 1005.0 |
| 20260906041538 | 30 | 332 | 0.0 | 3.2 | 0.00 | 0.00 | 0.00 | 39 | 1005.0 |
| 20260906040037 | 30 | 316 | 0.0 | 3.2 | 0.00 | 0.00 | 0.00 | 39 | 1005.0 |
| 20260906034552 | 31 | 101 | 0.0 | 0.0 | 0.00 | 0.00 | 0.00 | 38 | 1004.9 |
| 20260906033040 | 31 | 101 | 0.0 | 4.8 | 0.00 | 0.00 | 0.00 | 36 | 1004.6 |
| 20260906031537 | 31 | 271 | 0.0 | 4.8 | 0.00 | 0.00 | 0.00 | 36 | 1004.4 |
| 20260906030036 | 31 | 309 | 4.8 | 9.7 | 0.00 | 0.00 | 0.00 | 36 | 1004.1 |
| 20260906024539 | 31 | 333 | 3.2 | 9.7 | 0.00 | 0.00 | 0.00 | 36 | 1003.9 |
| 20260906023034 | 31 | 315 | 0.0 | 4.8 | 0.00 | 0.00 | 0.00 | 37 | 1003.9 |
| 20260906021540 | 31 | 302 | 0.0 | 4.8 | 0.00 | 0.00 | 0.00 | 36 | 1003.6 |
| 20260906020033 | 32 | 306 | 1.6 | 4.8 | 0.00 | 0.00 | 0.00 | 36 | 1003.6 |
| 20260906014533 | 32 | 319 | 0.0 | 8.0 | 0.00 | 0.00 | 0.00 | 35 | 1003.6 |
| 20260906013032 | 32 | 329 | 1.6 | 9.7 | 0.00 | 0.00 | 0.00 | 34 | 1003.5 |
| 20260906011532 | 33 | 325 | 3.2 | 12.9 | 0.00 | 0.00 | 0.00 | 34 | 1003.5 |
| 20260906010034 | 33 | 319 | 4.8 | 12.9 | 0.00 | 0.00 | 0.00 | 33 | 1003.5 |
| 20260906004531 | 34 | 316 | 6.4 | 16.1 | 0.00 | 0.00 | 0.00 | 33 | 1003.4 |
| 20260906003030 | 35 | 314 | 11.3 | 16.1 | 0.00 | 0.00 | 0.00 | 31 | 1003.4 |
| 20260906001545 | 35 | 335 | 6.4 | 19.3 | 0.00 | 0.00 | 0.00 | 31 | 1003.4 |
| 20260906000029 | 35 | 311 | 8.0 | 20.9 | 0.00 | 0.00 | 0.00 | 31 | 1003.3 |
| 20260905234529 | 35 | 327 | 6.4 | 17.7 | 0.00 | 0.00 | 0.00 | 31 | 1003.2 |
| 20260905233028 | 35 | 338 | 9.7 | 19.3 | 0.00 | 0.00 | 0.00 | 31 | 1003.2 |
| 20260905231528 | 35 | 303 | 9.7 | 27.4 | 0.00 | 0.00 | 0.00 | 31 | 1003.3 |
| 20260905230033 | 35 | 252 | 8.0 | 22.5 | 0.00 | 0.00 | 0.00 | 31 | 1003.4 |
| 20260905224525 | 35 | 311 | 11.3 | 22.5 | 0.00 | 0.00 | 0.00 | 30 | 1003.5 |
| 20260905223039 | 35 | 270 | 8.0 | 20.9 | 0.00 | 0.00 | 0.00 | 32 | 1003.6 |
| 20260905221523 | 35 | 290 | 3.2 | 14.5 | 0.00 | 0.00 | 0.00 | 32 | 1003.8 |
| 20260905220019 | 35 | 228 | 4.8 | 17.7 | 0.00 | 0.00 | 0.00 | 31 | 1003.9 |
| 20260905214517 | 35 | 326 | 6.4 | 12.9 | 0.00 | 0.00 | 0.00 | 32 | 1004.2 |
| 20260905213015 | 35 | 318 | 8.0 | 20.9 | 0.00 | 0.00 | 0.00 | 32 | 1004.5 |
| 20260905211514 | 35 | 319 | 3.2 | 16.1 | 0.00 | 0.00 | 0.00 | 32 | 1004.6 |
| 20260905210011 | 35 | 323 | 4.8 | 12.9 | 0.00 | 0.00 | 0.00 | 33 | 1004.9 |
| 20260905204508 | 35 | 278 | 4.8 | 12.9 | 0.00 | 0.00 | 0.00 | 34 | 1005.1 |
| 20260905203006 | 35 | 318 | 8.0 | 16.1 | 0.00 | 0.00 | 0.00 | 33 | 1005.3 |
| 20260905201504 | 35 | 304 | 4.8 | 17.7 | 0.00 | 0.00 | 0.00 | 33 | 1005.5 |
| 20260905200002 | 34 | 321 | 1.6 | 16.1 | 0.00 | 0.00 | 0.00 | 35 | 1005.7 |
| 20260905194600 | 33 | 303 | 6.4 | 11.3 | 0.00 | 0.00 | 0.00 | 35 | 1006.0 |
| 20260905193057 | 34 | 288 | 4.8 | 9.7 | 0.00 | 0.00 | 0.00 | 36 | 1006.2 |
| 20260905191555 | 33 | 263 | 4.8 | 12.9 | 0.00 | 0.00 | 0.00 | 36 | 1006.4 |
| 20260905190053 | 33 | 266 | 1.6 | 16.1 | 0.00 | 0.00 | 0.00 | 37 | 1006.7 |
| 20260905184557 | 33 | 285 | 1.6 | 9.7 | 0.00 | 0.00 | 0.00 | 38 | 1006.9 |
| 20260905183048 | 32 | 331 | 3.2 | 9.7 | 0.00 | 0.00 | 0.00 | 39 | 1007.1 |
| 20260905181548 | 32 | 321 | 4.8 | 11.3 | 0.00 | 0.00 | 0.00 | 39 | 1007.3 |
| 20260905180044 | 31 | 285 | 1.6 | 8.0 | 0.00 | 0.00 | 0.00 | 40 | 1007.4 |
| 20260905174543 | 31 | 348 | 4.8 | 11.3 | 0.00 | 0.00 | 0.00 | 39 | 1007.4 |
| 20260905173141 | 31 | 352 | 3.2 | 9.7 | 0.00 | 0.00 | 0.00 | 41 | 1007.6 |
| 20260905171538 | 30 | 250 | 0.0 | 6.4 | 0.00 | 0.00 | 0.00 | 44 | 1007.6 |
| 20260905170036 | 30 | 267 | 3.2 | 8.0 | 0.00 | 0.00 | 0.00 | 46 | 1007.8 |
| 20260905164533 | 30 | 270 | 0.0 | 3.2 | 0.00 | 0.00 | 0.00 | 48 | 1007.8 |
| 20260905163029 | 28 | 323 | 3.2 | 4.8 | 0.00 | 0.00 | 0.00 | 50 | 1007.8 |
| 20260905161527 | 28 | 278 | 0.0 | 3.2 | 0.00 | 0.00 | 0.00 | 52 | 1007.8 |
| 20260905160025 | 28 | 305 | 0.0 | 3.2 | 0.00 | 0.00 | 0.00 | 53 | 1007.8 |
| 20260905154523 | 27 | 319 | 1.6 | 4.8 | 0.00 | 0.00 | 0.00 | 55 | 1007.8 |
| 20260905153026 | 27 | 251 | 0.0 | 1.6 | 0.00 | 0.00 | 0.00 | 59 | 1007.9 |